Location: Alpine Heights
(32.8181°N, 116.7809°W)
Time: 23:57:33
(UTC+00:00)

DELTA 2 R/B (1) - Pass Details

Date: 14 April 2021
Orbit: 789 x 803 km, 39.6° (Epoch: 15 May)

Event Time Altitude Azimuth Distance (km) Brightness Sun altitude
Exits shadow 12:32:52 - 281° (WNW) 2,469 5.6 -10.0°
Reaches altitude 10° 12:33:12 10° 283° (WNW) 2,353 5.5 -10.0°
Maximum altitude 12:38:28 43° 354° (N) 1,108 4.4 -8.9°
Drops below altitude 10° 12:43:45 10° 65° (ENE) 2,363 7.7 -7.9°
Sets 12:46:23 0° 72° (ENE) 3,296 9.5 -7.3°
